Regional Weather Roundup
Issued by NWS

Home | Current Version | Previous Version | Graphics & Text | Print | Product List | Glossary On
Versions: 1 2 3 4 5 6 7 8 9 10 11 12 13 14 15 16 17 18 19 20 21 22 23 24 25 26 27 28 29 30 31 32 33 34 35 36 37 38 39 40 41 42 43 44 45 46 47 48 49 50
000
ASUS45 KABQ 272010
RWRNM
NEW MEXICO REGIONAL WEATHER ROUNDUP
NATIONAL WEATHER SERVICE ALBUQUERQUE NM
200 PM MDT SAT AUG 27 2016

NOTE: "FAIR" MEANS FEW OR NO CLOUDS BELOW 12,000 FEET AGL WITH NO
       SIGNIFICANT WEATHER OR OBSTRUCTIONS TO VISION.

      THIS PRODUCT IS RELEASED AS TWO VERSIONS.  ONE VERSION NEAR
      THE TOP OF THE HOUR CONTAINING PRELIMINARY DATA FROM ALBUQUERQUE
      AND OTHER STATIONS.  A FINAL VERSION WITH ADDITIONAL DATA IS
      ISSUED ABOUT 10 MINUTES AFTER THE HOUR.

NMZ501-503-504-510>518-272100-
NORTHWEST PLATEAU/NORTHCENTRAL MOUNTAINS

CITY           SKY/WX    TMP DP  RH WIND       PRES   REMARKS
FARMINGTON     FAIR      77  39  25 W15G21    30.15S
SANTA FE       FAIR      78  46  32 VRB6      30.20F
TAOS           PTSUNNY   73  43  33 W10G16    30.26F
ANGEL FIRE     FAIR      67  42  39 W10G23    30.33S

$$
NMZ402-403-502-505>509-272100-
WESTCENTRAL MOUNTAINS/SOUTHWEST MOUNTAINS

CITY           SKY/WX    TMP DP  RH WIND       PRES   REMARKS
GALLUP         PTSUNNY   60  49  66 SW23G38   30.31R
GRANTS         PTSUNNY   77  35  22 SW7       30.21F
SILVER CITY    PTSUNNY   74  57  54 N6        30.16F

$$
NMZ407-409-411-412-272100-
SOUTHERN DESERTS

CITY           SKY/WX    TMP DP  RH WIND       PRES   REMARKS
DEMING         FAIR      84  55  36 SW5       30.07F
LAS CRUCES     FAIR      86  53  31 S9G18     30.09F
HOLLOMAN AFB   FAIR      84  60  44 W5        30.06F
ALAMOGORDO     FAIR      84  55  37 CALM      30.09F
T OR C         FAIR      81  52  36 S10       30.11F

$$
NMZ519>523-272100-
CENTRAL VALLEYS/CENTRAL HIGHLANDS

CITY           SKY/WX    TMP DP  RH WIND       PRES   REMARKS
ALBUQUERQUE    FAIR      81  44  27 VRB5      30.13F
DOUBLE EAGLE   PTSUNNY   82  48  30 VRB7      30.17F
MORIARTY ARPT  FAIR      78  42  27 S6        30.20F
CLINES CORNERS FAIR      74  43  32 W8        30.26F
BELEN          FAIR      83  43  24 SE3       30.12F
SOCORRO        FAIR      88  46  23 SE17G25   30.09F

$$
NMZ524>526-539-540-272100-
SOUTHCENTRAL MOUNTAINS

CITY           SKY/WX    TMP DP  RH WIND       PRES   REMARKS
RUIDOSO          N/A     72  50  46 SE21      30.27F

$$
NMZ527>531-272100-
NORTHEAST HIGHLANDS/NORTHEAST PLAINS

CITY           SKY/WX    TMP DP  RH WIND       PRES   REMARKS
LAS VEGAS      FAIR      76  46  34 SW8G23    30.22F
RATON          FAIR      80  44  27 S15       30.15F
CLAYTON        FAIR      83  54  36 S12       30.10F

$$
NMZ532>537-272100-
EASTCENTRAL PLAINS

CITY           SKY/WX    TMP DP  RH WIND       PRES   REMARKS
TUCUMCARI      FAIR      89  49  25 W12       30.04F
CANNON AFB     FAIR      87  53  30 S9        30.08F
CLOVIS AIRPORT FAIR      84  57  39 S12       30.09F

$$
NMZ028-029-538-272100-
SOUTHEAST PLAINS

CITY           SKY/WX    TMP DP  RH WIND       PRES   REMARKS
ROSWELL        FAIR      86  57  37 VRB6      30.05F
ARTESIA        FAIR      84  59  42 VRB6G14   30.05F
CARLSBAD       FAIR      83  60  45 S5        30.03F
HOBBS          MOSUNNY   84  61  45 S7        30.08F


$$




USA.gov is the U.S. government's official web portal to all federal, state and local government web resources and services.